Regional Weather Roundup
Issued by NWS

Home | Current Version | Previous Version | Text Only | Print | Product List | Glossary Off
Versions: 1 2 3 4 5 6 7 8 9 10 11 12 13 14 15 16 17 18 19 20 21 22 23 24 25 26 27 28 29 30 31 32 33 34 35 36 37 38 39 40 41 42 43 44 45 46 47 48 49 50

000
ASUS44 KMEG 170210
RWRTN
TENNESSEE HOURLY STATE WEATHER ROUNDUP
NATIONAL WEATHER SERVICE MEMPHIS TN
900 PM CDT TUE SEP 16 2014

TNZ002-004-019-021-049-052-054-088>092-170300-
WEST TENNESSEE

CITY           SKY/WX    TMP DP  RH WIND       PRES   REMARKS
MEMPHIS INTL   PTCLDY    72  63  73 N6        30.06R
NWS MEMPHIS      N/A     70 N/A N/A MISG        N/A
JACKSON        MOCLDY    65  60  84 CALM      30.07R
DYERSBURG      CLOUDY    66  52  59 N9        30.08S
UNION CITY     CLOUDY    63  57  82 N6        30.08R
PARIS          CLOUDY    63  55  77 NE7       30.09R
HUNTINGDON     CLOUDY    64  57  78 CALM      30.08R
LEXINGTON      CLEAR     61  59  94 CALM      30.06R
SAVANNAH       CLEAR     64  63  94 CALM      30.06S
$$

TNZ008-025-027-028-033-062-065-066-170300-
NORTH MIDDLE TENNESSEE

CITY           SKY/WX    TMP DP  RH WIND       PRES   REMARKS
NASHVILLE      PTCLDY    63  58  83 NW3       30.07R
DICKSON        CLEAR     59  55  88 CALM      30.07S
PORTLAND       PTCLDY    59  55  88 CALM      30.07R
CLARKSVILLE    CLEAR     57  52  83 N7        30.08R
LEBANON        PTCLDY    59  58  96 CALM      30.05R
SMYRNA         PTCLDY    63  60  90 CALM      30.08R
MURFREESBORO   CLEAR     67  63  87 CALM      30.06
COOKEVILLE       N/A     59  57  94 CALM      30.07R VSB 0
LIVINGSTON     PTCLDY    61  59  93 CALM      30.08R
GALLATIN       MOCLDY    64  60  87 NW5       30.07S
CROSSVILLE     CLEAR     63  58  83 NW5       30.09R
$$

TNZ061-075-076-078-094-096-097-170300-
SOUTH MIDDLE TENNESSEE

CITY           SKY/WX    TMP DP  RH WIND       PRES   REMARKS
LEWISBURG      PTCLDY    64  62  93 CALM      30.06R
FAYETTEVILLE   MOCLDY    66  63  88 N6        30.06S
TULLAHOMA      CLEAR     64  61  88 CALM      30.08S
WINCHESTER     CLOUDY    66  64  94 N3        30.07R
MCMINNVILLE      N/A     64  64 100 CALM      30.07S
COLUMBIA       CLEAR     64  64 100 CALM      30.05F
SHELBYVILLE    CLOUDY    66  64  94 CALM      30.07S
$$

TNZ017-018-042-046-047-170300-
NORTHEAST TENNESSEE

CITY           SKY/WX    TMP DP  RH WIND       PRES   REMARKS
TRI CITIES     MOCLDY    67  59  75 CALM      30.05R
ELIZABETHTON   PTCLDY    63  61  94 CALM      30.04F
$$

TNZ012-013-036-069-073-074-170300-
CENTRAL EAST TENNESSEE

CITY           SKY/WX    TMP DP  RH WIND       PRES   REMARKS
KNOXVILLE      NOT AVBL
OAK RIDGE      CLEAR     65  61  87 CALM      30.06R
GATLINBURG     MOCLDY    68  63  83 CALM      30.03S
MORRISTOWN     MOCLDY    66  63  88 NW5       30.05S
$$

TNZ083-085-099-170300-
SOUTHEAST TENNESSEE

CITY           SKY/WX    TMP DP  RH WIND       PRES   REMARKS
CHATTANOOGA    PTCLDY    72  65  78 N12       30.03R
$$

SKY/WX REPORTED AS FAIR MEANS FEW OR NO CLOUDS BELOW
12 THOUSAND FEET.



USA.gov is the U.S. government's official web portal to all federal, state and local government web resources and services.